Location: Étouvelles
(49.5207°N, 3.5808°E)
Time: 18:04:12
(UTC+00:00)

Okean O Rocket - Pass Details

Date: 03 February 2023
Orbit: 620 x 643 km, 98.1° (Epoch: 26 March)

Event Time Altitude Azimuth Distance (km) Brightness Sun altitude
Rises 19:14:46 0° 179° (S) 2,909 5.0 -24.6°
Reaches altitude 10° 19:17:00 10° 184° (S) 2,010 4.2 -24.9°
Maximum altitude 19:21:15 49° 260° (W) 820 2.5 -25.6°
Drops below altitude 10° 19:25:34 10° 336° (NNW) 2,040 4.5 -26.3°
Sets 19:27:51 0° 342° (NNW) 2,958 5.3 -26.7°
